User: anonymous   Login
Location: ?????
(32.7281°N, 34.9563°E)
Time: 06:22:00
(UTC+00:00)
Language:

CSL-04 Rocket - Orbit

View from above orbital plane
View from above orbital plane
View from above satellite
View from above satellite

Ground track
Ground track

The orbit data is extracted from the following two-line orbital elements,

1 25732U 99025C   21015.33536626 -.00000020  00000-0  12622-4 0  9997
2 25732  98.9225  51.2929 0036787 327.8510  42.5736 14.17687006121844
Epoch (UTC): 15 January 2021 08:02:55
Eccentricity: 0.0036787
inclination: 98.9225°
perigee height: 806 km
apogee height: 860 km
right ascension of ascending node: 51.2929°
argument of perigee: 327.8510°
revolutions per day: 14.17687006
mean anomaly at epoch: 42.5736°
orbit number at epoch: 12184

The dashed part of the orbit path shows where the satellite is in the earth's shadow,  

DLR